Content
SEND FEEDBACK

Daily
Averages
Monthly
Summary
Mexico

TEOPANTLÁN, PUEBLA


Home > North America > Mexico > Puebla
Elevation: 4652 feet     Latitude: 18 42N     Longitude: 098 15W

WEATHER
 
SELECT A DAY
Number of Records: 124,871;   Date Range: 1/1/95 - 11/26/14
 
SHARE

PRINT THIS DATA

[ ← Previous Day ]
WEATHER ALMANAC - FEBRUARY 13, 2013
[ Next Day → ]
[ °C ]   °F
Weather ElementAverageHighLow
Temperature63.4 °F79 °F (2:40 pm)39.2 °F (5:53 am)
Dewpoint23.6 °F38 °F (11:50 am)12.2 °F (4:49 pm)
Humidity21.3 %45 % (6:45 am)9 % (4:49 pm)
Barometer30.10 in30.32 in (9:47 am)29.58 in (8:58 pm)
Wind Speed8.3 mph24.2 mph (3:41 pm)
Weather ElementAverage
Visibility7.2 mi
Wind DirectionSSW (198.3 °)

Weather ElementTotal
Precipitation---
Heating Degree Days5.9 (Base 65)
Growing Degree Days9.1 (Base 50)
Averaged from 25 records on February 13, 2013
WEATHER CONDITIONS BREAKOUT
WIND DIRECTION BREAKOUT
WEATHER BY HOUR - FEBRUARY 13, 2013
[ °C ]   °F
Local TimeTemperatureDewpointHumidityBarometerVisibilityWind DirectionWind SpeedGust SpeedPrecipitationEventsConditions
5:45 AM49.0 °F29.0 °F33 %29.86 in3.0 miCalm
5:53 AM39.2 °F17.6 °F42 %30.28 in8.0 miNW (320°)9.2 mphClear
6:45 AM39.2 °F19.4 °F45 %30.29 in8.0 miNNW (330°)5.8 mphClear
7:40 AM42.8 °F19.4 °F39 %30.30 in8.0 miNNW (330°)8.1 mphClear
8:41 AM51.8 °F19.4 °F28 %30.31 in8.0 miNorth (360°)9.2 mphClear
8:50 AM57.0 °F36.0 °F34 %29.94 in3.0 miCalmHaze
9:47 AM62.6 °F21.2 °F20 %30.32 in8.0 miNorth (360°)4.6 mphClear
10:46 AM69.8 °F26.6 °F20 %30.31 in8.0 miSSW (210°)5.8 mphClear
11:50 AM73.0 °F38.0 °F18 %29.91 in6.0 miSouth (180°)2.2 mphHaze
11:56 AM73.4 °F23.0 °F15 %30.29 in8.0 miSSE (160°)9.2 mphClear
12:51 PM75.2 °F28.4 °F18 %30.24 in8.0 miSSE (150°)12.7 mphClear
1:42 PM75.2 °F28.4 °F18 %30.20 in8.0 miSouth (170°)20.7 mphClear
2:40 PM79.0 °F36.0 °F12 %29.73 in9.0 miSouth (180°)4.5 mphHaze
2:52 PM77.0 °F26.6 °F16 %30.17 in8.0 miSouth (180°)18.4 mphClear
3:41 PM77.0 °F21.2 °F12 %30.15 in8.0 miSSW (200°)24.2 mphClear
4:49 PM75.2 °F12.2 °F9 %30.15 in8.0 miSouth (180°)20.7 mphClear
5:40 PM73.0 °F31.0 °F12 %29.61 in6.0 miSSE (160°)4.5 mphHaze
5:48 PM71.6 °F14.0 °F11 %30.16 in8.0 miSouth (180°)15.0 mphClear
6:45 PM64.4 °F12.2 °F13 %30.17 in8.0 miSSW (200°)10.4 mphClear
7:43 PM62.6 °F15.8 °F16 %30.18 in8.0 miSW (220°)9.2 mphClear
8:45 PM62.6 °F26.6 °F26 %30.20 in8.0 miSW (230°)4.6 mphClear
8:58 PM65.0 °F24.0 °F11 %29.58 in3.0 miSSE (150°)2.2 mph
9:41 PM55.4 °F21.2 °F26 %30.22 in10.0 miNNE (20°)3.5 mphClear
10:50 PM55.4 °F17.6 °F23 %30.23 in10.0 miCalmClear
11:59 PM59.0 °F25.0 °F16 %29.71 in3.0 miEast (90°)2.2 mph
Hourly data recorded from MMPB, located miles away from Teopantlán, Puebla







STORIES FROM OUR PARTNERS